Regional Weather Roundup
Issued by NWS

Home | Current Version | Previous Version | Graphics & Text | Print | Product List | Glossary On
Versions: 1 2 3 4 5 6 7 8 9 10 11 12 13 14 15 16 17 18 19 20 21 22 23 24 25 26 27 28 29 30 31 32 33 34 35 36 37 38 39 40 41 42 43 44 45 46 47 48 49 50
589
ASUS43 KLSX 230907
RWRMO

WEATHER SUMMARY FOR MISSOURI
NATIONAL WEATHER SERVICE SPRINGFIELD MO
400 AM CDT SAT JUL 23 2016

NOTE: "FAIR" INDICATES FEW OR NO CLOUDS BELOW 12,000 FEET WITH NO
       SIGNIFICANT WEATHER AND/OR OBSTRUCTIONS TO VISIBILITY.
       CURRENT SKY AND/OR WEATHER CONDITIONS ARE NOT AVAILABLE FOR
       CHILLICOTHE AND FARMINGTON.

MOZ001>031-035>038-043-044-053-054-231000-
...NORTHERN AND WESTERN MISSOURI...

CITY           SKY/WX    TMP DP  RH WIND       PRES   REMARKS
KANSAS CTY INT PTCLDY    79  73  82 S10       29.95F
KANSAS C DTWN  CLEAR     83  73  72 SW6       29.94F
LEE`S SUMMIT   CLEAR     82  75  79 S10       29.97F
ST JOSEPH      CLOUDY    82  72  71 S8        29.92F
CHILLICOTHE      N/A     79  76  90 CALM      29.97S
KIRKSVILLE     CLOUDY    77  75  93 SW3       29.99S

$$
MOZ066>068-077>081-088>096-101>105-231000-
...SOUTHWEST MISSOURI...

CITY           SKY/WX    TMP DP  RH WIND       PRES   REMARKS
SPRINGFIELD    CLEAR     79  74  84 SE6       30.00F
JOPLIN         CLEAR     78  72  81 S8        29.98F
BRANSON        CLEAR     75  73  94 CALM      30.03R

$$
MOZ032>034-039>042-045>050-055>058-069>072-231000-
...CENTRAL MISSOURI...

CITY           SKY/WX    TMP DP  RH WIND       PRES   REMARKS
COLUMBIA       CLEAR     76  75  97 SE5       29.99S
JEFFERSON CITY CLEAR     76  75  97 SE3       29.98S
ROLLA          PTCLDY    75  71  87 S7        30.00S
SEDALIA        CLEAR     78  75  90 S7        29.99S
WHITEMAN AFB   CLEAR     78  78 100 S6        29.97R
OSAGE BEACH    CLEAR     77  75  93 SE3       30.00S

$$
MOZ051-052-059>065-231000-
...EAST CENTRAL MISSOURI...

CITY           SKY/WX    TMP DP  RH WIND       PRES   REMARKS
ST LOUIS INTL  PTCLDY    78  72  81 CALM      29.99F
SPIRIT OF STL  CLEAR     72  72 100 CALM      29.98S
ST CHARLES     PTCLDY    74  74 100 E3        29.98S

$$
MOZ072>076-082>087-097>100-106>115-231000-
...SOUTH CENTRAL AND SOUTHEAST MISSOURI...

CITY           SKY/WX    TMP DP  RH WIND       PRES   REMARKS
CAPE GIRARDEAU CLOUDY    74  73  97 CALM      29.98R
FARMINGTON     FOG       72  72 100 CALM      30.01F VSB 3/4
POPLAR BLUFF   MOCLDY    77  74  90 CALM      29.98R
WEST PLAINS    CLEAR     76  72  87 CALM      30.03F

$$



USA.gov is the U.S. government's official web portal to all federal, state and local government web resources and services.